Dubuque, IA

9:49 AM CST on December 08, 2019 (GMT -0600)
Dubuque Regional

Weather History for KDBQ - August, 2019

Change the Weather History Date:

Saturday, August 31, 2019

  Actual Average Record
Temperature  
Mean Temperature 62 °F 68 °F  
Max Temperature 70 °F 78 °F 96 °F (1953)
Min Temperature 55 °F 58 °F 42 °F (1967)
Degree Days  
Heating Degree Days 2 1  
Month to date heating degree days 9 16  
Since 1 June heating degree days 38 67  
Since 1 July heating degree days 9 27  
Cooling Degree Days 0 4  
Month to date cooling degree days 120 176  
Year to date cooling degree days 573 576  
Since 1 June cooling degree days 547 539  
Growing Degree Days 12 (Base 50)    
Moisture  
Dew Point 55 °F    
Average Humidity 79    
Maximum Humidity 100    
Minimum Humidity 53    
Precipitation  
Precipitation T in 0.14 in 2.86 in (1914)
Month to date precipitation 5.02 4.40  
Year to date precipitation 31.13 25.98  
Snow  
Snow 0.00 in 0.00 in - ()
Month to date snowfall 0.0 0.0  
Since 1 June snowfall 0.0 0.0  
Since 1 July snowfall 0.0 0.0  
Snow Depth 0.00 in    
Sea Level Pressure  
Sea Level Pressure 30.25 in    
Wind  
Wind Speed 4 mph ()    
Max Wind Speed 16 mph    
Max Gust Speed 23 mph    
Visibility 10.0 miles    
Events      
T = Trace of Precipitation, MM = Missing Value Source: Averaged Metar Reports

Daily Weather History Graph

Daily Weather History Graph

Search for Another Location

Airport or City:

Astronomy

Aug. 31, 2019 Rise Set
Actual Time 6:26 AM CDT 7:38 PM CDT
Civil Twilight 5:57 AM CDT 8:07 PM CDT
Nautical Twilight 5:22 AM CDT 8:42 PM CDT
Astronomical Twilight 4:46 AM CDT 9:18 PM CDT
Moon 7:43 AM CDT (8/31) 8:50 PM CDT (8/31)
Length of Visible Light 14h 10m
Length of Day
13h 12m
New Moon, 3% of the Moon is Illuminated
Aug 31
New Moon
Sep 5
First Quarter
Sep 13
Full
Sep 21
Last Quarter
Sep 28
New

Hourly Weather History & Observations

Time (CDT) Temp. Dew Point Humidity Pressure Visibility Wind Dir Wind Speed Gust Speed Precip Events Conditions
12:53 AM 60.1 °F 55.0 °F 83% 30.24 in 10.0 mi Calm Calm - N/A   Clear
1:53 AM 60.1 °F 54.0 °F 80% 30.24 in 10.0 mi East 3.5 mph - N/A   Clear
2:53 AM 60.1 °F 52.0 °F 75% 30.24 in 10.0 mi NNE 3.5 mph - N/A   Clear
3:53 AM 59.0 °F 54.0 °F 83% 30.26 in 10.0 mi Calm Calm - N/A   Clear
4:53 AM 55.9 °F 53.1 °F 90% 30.27 in 10.0 mi Calm Calm - N/A   Clear
5:53 AM 57.0 °F 55.0 °F 93% 30.27 in 10.0 mi Calm Calm - N/A   Clear
6:53 AM 55.9 °F 54.0 °F 93% 30.28 in 10.0 mi ENE 3.5 mph - N/A   Clear
7:53 AM 60.1 °F 53.1 °F 78% 30.28 in 10.0 mi East 6.9 mph - N/A   Clear
8:53 AM 63.0 °F 54.0 °F 72% 30.29 in 10.0 mi East 6.9 mph - N/A   Clear
9:53 AM 66.9 °F 55.0 °F 66% 30.28 in 10.0 mi SE 12.7 mph 18.4 mph N/A   Clear
10:53 AM 66.9 °F 52.0 °F 59% 30.28 in 10.0 mi ESE 12.7 mph - N/A   Clear
11:53 AM 69.1 °F 53.1 °F 57% 30.27 in 10.0 mi ESE 10.4 mph - N/A   Clear
12:53 PM 69.1 °F 51.1 °F 53% 30.27 in 10.0 mi East 10.4 mph - N/A   Clear
1:53 PM 68.0 °F 53.1 °F 59% 30.27 in 10.0 mi ENE 9.2 mph - N/A   Mostly Cloudy
2:53 PM 66.9 °F 54.0 °F 63% 30.25 in 10.0 mi NE 9.2 mph - N/A   Overcast
3:53 PM 66.9 °F 55.9 °F 68% 30.24 in 10.0 mi NNE 6.9 mph - N/A   Scattered Clouds
4:53 PM 64.9 °F 57.0 °F 75% 30.24 in 10.0 mi NNE 6.9 mph - N/A   Overcast
5:53 PM 63.0 °F 57.9 °F 84% 30.23 in 10.0 mi North 6.9 mph - N/A   Mostly Cloudy
6:53 PM 62.1 °F 60.1 °F 93% 30.22 in 10.0 mi NNE 8.1 mph - N/A   Overcast
7:53 PM 61.0 °F 60.1 °F 97% 30.21 in 10.0 mi NNE 6.9 mph - 0.00 in   Overcast
8:53 PM 61.0 °F 60.1 °F 97% 30.20 in 10.0 mi NNE 8.1 mph - N/A   Overcast
9:53 PM 61.0 °F 60.1 °F 97% 30.21 in 10.0 mi NNE 5.8 mph - N/A   Overcast
10:53 PM 61.0 °F 59.0 °F 93% 30.21 in 10.0 mi ENE 3.5 mph - N/A   Overcast
11:53 PM 60.1 °F 59.0 °F 96% 30.21 in 10.0 mi NNE 5.8 mph - N/A   Mostly Cloudy